Location: Rimrock Meadows
(47.4808°N, 119.7286°W)
Time: 15:32:06
(UTC-08:00)

Daily predictions for brighter satellites

Satellite Brightness Start Highest point End
(mag) Time Altitude Azimuth Time Altitude Azimuth Time Altitude Azimuth
USA 215 3.3 16:32:08 10° ESE 16:38:40 79° NNE 16:45:13 10° NW
Okean 3 4.3 16:36:42 10° SSW 16:40:49 53° WNW 16:44:58 10° N
Cosmos 1428 Rocket 4.5 16:36:31 10° N 16:42:42 66° ENE 16:48:46 10° SSE
Cosmos 724 4.4 16:37:19 10° NNW 16:43:02 56° NE 16:48:44 10° SE
SJ 16-02 2.7 16:43:11 10° SSE 16:46:28 21° E 16:49:47 10° NE
Cosmos 2150 Rocket 4.1 16:41:59 10° SSW 16:47:26 77° ESE 16:52:53 10° NNE
CZ-2C R/B 2.9 16:45:49 10° S 16:51:00 73° WSW 16:56:08 10° NNW
Cosmos 1975 Rocket 3.1 16:47:01 10° S 16:51:29 80° E 16:56:00 10° NNE
CSL-04 Rocket 3.8 16:47:28 10° SSE 16:52:49 60° ENE 16:58:16 10° N
Meteor 1-18 Rocket 4.4 16:48:26 10° SSW 16:54:02 84° W 16:59:47 10° N
Cosmos 1743 2.7 16:51:35 10° N 16:55:28 68° ENE 16:59:20 10° SSE
BREEZE-M DEB (TANK) 2.1 16:53:28 10° W 16:55:36 73° N 16:59:34 10° ENE
CENTAUR R/B 3.6 16:49:55 10° NW 16:56:45 36° NNE 17:04:13 10° E
IRAS Rocket 4.2 16:53:50 10° SSE 16:59:16 69° ENE 17:04:44 10° NNW
Cosmos 2369 Rocket 4.3 16:57:56 10° W 17:01:30 17° NW 17:05:05 10° N
Cosmos 1697 Rocket 3.9 16:59:19 10° SSE 17:03:38 23° ESE 17:07:40 11° NE
CZ-4 R/B 1.7 17:00:59 10° SE 17:04:38 40° ENE 17:08:23 10° N
Cosmos 2279 Rocket 4.0 16:58:38 10° S 17:04:53 80° E 17:11:11 10° N
SPOT 3 Rocket 4.4 17:08:06 10° ESE 17:12:22 27° ENE 17:16:39 10° N
Ariane Rocket 2.9 17:08:57 10° SSE 17:13:59 77° ENE 17:19:03 10° NNW
ERS-2 3.4 17:11:30 10° ESE 17:14:19 21° ENE 17:17:08 10° NNE
Cosmos 2082 3.6 17:08:49 10° NNW 17:14:28 79° ENE 17:20:06 10° SSE
Meteor 1-19 Rocket 4.2 17:11:59 10° S 17:17:40 72° E 17:23:29 10° NNE
Cosmos 1536 Rocket 3.7 17:15:34 10° SSE 17:19:45 50° E 17:23:57 10° NNE
SMAP 3.0 17:15:20 10° SSE 17:19:58 83° ENE 17:24:40 10° NNW
Cosmos 389 Rocket 4.0 17:19:31 10° NNW 17:22:46 38° W 17:26:00 10° SSW
Cosmos 1937 Rocket 4.4 17:18:41 10° SW 17:23:39 47° WNW 17:28:38 10° NNE
Cosmos 1269 Rocket 4.0 17:18:58 10° NNW 17:24:17 67° ENE 17:29:32 10° SSE
Gblst 52 Del rocket 4.2 17:18:51 10° WNW 17:24:26 85° NNE 17:30:29 10° ESE
Cosmos 2227 Rocket 2.5 17:19:42 10° NNW 17:25:21 71° WSW 17:30:58 10° SSE
Cosmos 1271 Rocket 3.7 17:23:05 10° NNW 17:26:47 50° W 17:30:31 10° S
Cosmos 1125 Rocket 3.6 17:21:58 10° S 17:27:08 56° ESE 17:32:08 11° NNE
USA 238 DEB 4.4 17:21:51 10° NW 17:28:50 61° WSW 17:35:52 10° SSE
USA 238 4.4 17:21:57 10° NW 17:28:56 61° WSW 17:35:58 10° SSE
CORIOLIS 4.1 17:23:35 10° SSE 17:29:00 86° ENE 17:34:25 10° NNW
SKYMED 2 4.4 17:28:37 16° NE 17:31:27 30° E 17:35:16 10° SSE
Cosmos 1048 Rocket 4.1 17:26:37 10° NNW 17:32:03 89° WSW 17:37:25 10° SSE
USA 161 3.9 17:32:43 10° NNW 17:35:09 24° WNW 17:37:39 10° SW
ALOS 2.7 17:30:57 10° SE 17:35:13 37° ENE 17:39:31 10° N
DNEPR-1 R/B 4.2 17:31:50 10° NNW 17:36:36 49° NE 17:42:19 10° ESE
Cosmos 372 Rocket 3.9 17:33:15 10° S 17:38:24 67° ESE 17:42:58 13° NNE
Meteor 2-9 Rocket 4.2 17:33:18 10° NNW 17:38:50 83° W 17:44:12 10° S
Cosmos 1943 Rocket 4.5 17:37:43 10° WNW 17:40:45 14° NW 17:43:46 10° N
Cosmos 1666 4.2 17:38:16 10° NNW 17:41:46 38° W 17:45:14 10° SSW
Cosmos 1980 Rocket 3.1 17:40:14 10° SSE 17:45:02 29° ESE 17:46:52 24° ENE
Cosmos 1484 Rocket 4.3 17:46:44 10° S 17:50:33 41° W 17:54:22 10° NNW
Cosmos 2297 Rocket 3.1 17:46:11 10° NW 17:51:40 52° WSW 17:57:08 10° S
Meteor 1-23 Rocket 4.2 17:48:34 10° S 17:54:16 69° E 17:59:55 10° NNE
Cosmos 1656 3.6 17:48:48 10° SSW 17:54:22 80° ESE 17:58:29 18° NNE
MOS 1 4.2 17:50:22 10° SSE 17:56:02 74° ENE 18:01:43 10° NNW
CZ-4 R/B 4.4 17:52:06 10° SSE 17:56:14 84° WSW 18:00:24 10° NNW
NOSS 3-2 (A) 4.3 17:49:30 10° NW 17:56:55 70° SW 18:05:02 10° SSE
NOSS 5 (C) 4.3 17:54:02 10° SW 17:57:39 80° NW 17:58:35 43° NNE
Abrixas rocket 2.1 17:55:35 10° W 17:58:50 72° N 17:59:18 59° ENE
USA 116 3.1 17:57:39 27° N 17:59:14 82° WNW 18:02:19 10° SSW
Cosmos 2266 Rocket 4.3 17:55:54 10° NNW 18:01:58 69° W 18:08:05 10° S
NOSS 3-2 (C) 4.2 17:57:54 10° NW 18:05:22 78° SW 18:13:32 10° SSE
YAOGAN 1 3.0 18:01:36 10° S 18:05:53 64° WSW 18:10:12 10° NNW
ATLAS 3B R/B 4.3 18:02:43 10° NW 18:08:36 34° WSW 18:14:21 10° S
NOAA 12 3.9 18:06:39 10° SSE 18:11:54 77° ENE 18:17:10 10° NNW
Cosmos 2227 4.2 18:06:50 10° NNW 18:12:31 56° ENE 18:16:09 22° SE
ATLAS 2AS CENTAUR R/B 3.7 18:07:01 10° WSW 18:14:46 52° NW 18:20:46 19° NNE
COSMO-SKYMED 1 2.5 18:17:13 26° NNE 18:19:40 88° W 18:24:00 10° SSW
RESURS DK-1 3.8 18:17:40 10° S 18:19:44 24° SSE 18:19:44 24° SSE
SJ 16-02 2.4 18:20:34 10° SW 18:24:46 44° WNW 18:27:34 19° N
Cosmos 2263 Rocket 3.1 18:21:27 10° NNW 18:25:19 31° NNE 18:25:19 31° NNE
SL-16 R/B 4.2 18:23:41 10° SSE 18:24:29 13° SE 18:24:29 13° SE
FENGYUN 3A 3.7 18:22:37 10° S 18:28:00 79° WSW 18:33:24 10° NNW
DMSP B5D1-3 4.4 18:26:58 42° NE 18:28:38 67° ESE 18:33:43 10° S
S3M 4.1 18:23:00 10° SSE 18:28:45 46° E 18:28:55 45° E
Cosmos 2369 4.4 18:26:41 10° SW 18:32:12 50° WNW 18:35:57 20° NNE
Cosmos 2322 Rocket 4.2 18:27:54 10° SSE 18:28:30 12° SSE 18:28:30 12° SSE
Cosmos 2278 4.4 18:26:45 10° SW 18:32:18 52° WNW 18:35:59 21° NNE
EO 1 Del DPAF 3.2 18:32:39 75° NW 18:32:48 77° WNW 18:36:36 10° SSW
Cosmos 1515 4.3 18:30:36 10° SSW 18:34:18 54° WNW 18:35:20 40° NNW
COSMOS 2455 4.0 18:29:41 10° NNW 18:33:46 27° NNE 18:33:46 27° NNE
NOSS 3-4 (A) 3.4 18:29:23 10° SW 18:35:38 85° SE 18:37:52 44° NE
NOSS 3-4 (C) 3.4 18:29:29 10° SW 18:35:43 84° SE 18:37:56 44° NE
Cosmos 2360 4.1 18:31:33 10° SSW 18:37:13 65° ESE 18:38:00 58° ENE
CZ-4 R/B 4.2 18:37:05 10° SW 18:39:52 19° W 18:42:43 10° NW
Cosmos 1025 Rocket 3.7 18:42:32 10° SSW 18:46:44 53° WNW 18:48:04 37° NNW
Cosmos 1697 Rocket 3.0 18:41:32 10° SW 18:47:08 62° WNW 18:49:26 35° N
ERS-2 3.9 18:44:29 10° SSW 18:47:48 32° W 18:51:10 10° NNW
CENTAUR R/B 3.0 18:40:35 10° NW 18:48:25 89° SW 18:54:02 24° SE
SPOT 3 Rocket 4.4 18:46:31 10° S 18:51:30 48° W 18:56:31 10° NNW
Okean 1-7 Rocket 4.0 18:49:43 10° SSW 18:54:03 59° WNW 18:54:25 57° NW
Cosmos 2084 4.3 18:51:59 10° SW 18:54:56 44° WSW 18:54:56 44° WSW
SL-08 R/B 4.4 18:51:54 10° N 18:58:14 84° W 19:04:25 10° S
Cosmos 2251 Rocket 3.9 18:55:56 10° NNW 19:01:10 62° WSW 19:03:44 29° S
Cosmos 1553 Rocket 3.9 18:55:10 10° S 19:01:36 87° E 19:03:57 42° N
Cosmos 1417 Rocket 4.5 18:58:48 10° SSW 19:04:58 78° W 19:08:20 29° N
Cosmos 1745 Rocket 3.9 19:05:21 10° N 19:11:35 82° W 19:17:50 10° S
ALOS 4.2 19:08:45 10° SSW 19:12:44 28° W 19:16:45 10° NW
Gbstr 26 Del rocket 4.1 19:11:33 10° WSW 19:19:26 78° NNW 19:19:47 76° NNE
Cosmos 1980 Rocket 2.9 19:23:13 10° SW 19:28:41 51° WNW 19:28:41 51° WNW
ATLAS 2AS CENTAUR R/B 4.4 20:01:02 10° WNW 20:07:44 27° NNW 20:08:13 27° N
Cosmos 2263 Rocket 4.3 20:05:18 10° NW 20:07:03 20° NW 20:07:03 20° NW
